Location: Bretagne
(43.8474°N, 0.4650°W)
Time: 10:56:54
(UTC+00:00)

Resurs 01 Rocket - Pass Details

Date: 15 January 2026
Orbit: 627 x 635 km, 97.7° (Epoch: 11 February)

Event Time Altitude Azimuth Distance (km) Brightness Sun altitude
Rises 18:12:33 0° 139° (SE) 2,904 4.7 -14.6°
Reaches altitude 10° 18:14:56 10° 128° (SE) 2,001 3.8 -15.0°
Maximum altitude 18:18:41 29° 68° (ENE) 1,156 2.4 -15.7°
Drops below altitude 10° 18:22:28 10° 9° (N) 2,014 4.0 -16.3°
Sets 18:24:53 0° 358° (N) 2,927 4.9 -16.7°
